sat.trackr.live / text

‹ back to catalog

STARLINK-36134

NORAD 66863 · 2025-281R

PAYLOAD ACTIVE UNKNOWN

§ Identity

Operator
Country
US
Launch date
2025-12-02
Launch site
AFETR
Launch vehicle
Mass (kg)
RCS (m²)

Purposes: comms

External: N2YO · Heavens-Above · Gunter

§ Orbital elements

Epoch: 2026-09-20T21:19:55.150464Z

Period
94.27 min
Inclination
43.0033°
Eccentricity
0.0001859
Mean motion
15.27589589 rev/d
Perigee alt
481.7 km
Apogee alt
484.3 km
Semi-major
6,861.2 km
B*
4.7033e-4
RAAN
320.6606°
Arg perigee
275.6884°
Mean anomaly
84.3755°
Rev number
4,604

§ Raw data

STARLINK-361341 66863U 25281R   26263.88883276  .00012706  00000+0  47033-3 0  99912 66863  43.0033 320.6606 0001859 275.6884  84.3755 15.27589589 46045

JSON: /api/v1/satellites/66863 · /tle

For live sub-satellite position, see the globe view (requires WebGL).

§ Visibility from observer

Set your observer location to see the next 7 days of passes ≥ 10°. The values pass through the URL so the page stays shareable.

No JS? Fill the form by hand. The geolocation button needs JavaScript.